Flag for United Kingdom Weather past 2 weeks in Stafford, England, United Kingdom

Now
55 °F

Refreshingly cool.


Feels Like: 55 °F
Forecast: 33 / 56 °F
Wind: 5 mph from Northeast

Location: Shawbury


UV Index: 3 (Moderate)

Visibility: N/A


Pressure: 30.15 "Hg

Humidity: 38%

Dew point: 30 °F

Location of StaffordLocation

Historic Weather in Stafford

°F

Stafford temperature yesterday

Maximum temperature yesterday: 55 °F (at 12:50 PM)
Minimum temperature yesterday: 43 °F (at 11:50 PM)
Average temperature yesterday: 50 °F

Past Weeks' High & Low Weather Summary

 TemperatureHumidityPressure
High61 °F (Apr 6, 3:50 PM)100% (Apr 3, 10:50 PM)30.42 "Hg (Apr 3, 10:50 PM)
Low32 °F (Apr 15, 6:50 AM)38% (Apr 15, 10:50 AM)29.56 "Hg (Apr 3, 3:50 PM)
Average49 °F76%30.04 "Hg
* Reported Apr 3 3:50 PM — Apr 18 3:50 PM, Stafford, Weather by CustomWeather, © 2014

Note: Actual official high and low records may vary slightly from our data, if they occured in-between our weather recording intervals... More about our weather records

Advertising

Historic Weather Conditions — Data for Previous 24 hours

 ConditionsComfort  
Time TempWeatherWind HumidityBarometerVisibility
3:50 PM
Apr 18
55 °FRefreshingly cool.8 mph41%30.15 "HgN/A
2:50 PM54 °FCool.5 mph47%30.18 "HgN/A
1:50 PM54 °FPassing clouds.6 mph51%30.18 "HgN/A
12:50 PM52 °FPassing clouds.5 mph58%30.18 "HgN/A
11:50 AM50 °FPassing clouds.3 mph62%30.18 "HgN/A
10:50 AM48 °FPartly sunny.3 mph71%30.21 "HgN/A
9:50 AM46 °FPassing clouds.3 mph71%30.18 "HgN/A
8:50 AM45 °FQuite cool.2 mph81%30.18 "HgN/A
7:50 AM41 °FQuite cool.1 mph93%30.18 "HgN/A
6:50 AM34 °FChilly.2 mph93%30.15 "HgN/A
5:50 AM34 °FChilly.1 mph100%30.12 "HgN/A
4:50 AM39 °FChilly.2 mph87%30.12 "HgN/A
3:50 AM37 °FChilly.6 mph93%30.12 "HgN/A
2:50 AM41 °FQuite cool.8 mph81%30.12 "HgN/A
1:50 AM43 °FPassing clouds.7 mph81%30.12 "HgN/A
12:50 AM43 °FQuite cool.8 mph81%30.12 "HgN/A
11:50 PM
Apr 17
43 °FQuite cool.6 mph81%30.12 "HgN/A
10:50 PM45 °FQuite cool.8 mph87%30.12 "HgN/A
9:50 PM46 °FCool.10 mph87%30.09 "HgN/A
8:50 PM48 °FBroken clouds.10 mph87%30.09 "HgN/A
7:50 PM52 °FPartly sunny.7 mph72%30.09 "HgN/A
6:50 PM52 °FPartly sunny.12 mph67%30.07 "HgN/A
5:50 PM52 °FBroken clouds.12 mph67%30.07 "HgN/A
Weather by CustomWeather, © 2014

See weather overview